TimeHST,TemperatureF,Dew PointF,Humidity,Sea Level PressureIn,VisibilityMPH,Wind Direction,Wind SpeedMPH,Gust SpeedMPH,PrecipitationIn,Events,Conditions,WindDirDegrees,DateUTC
12:53 AM,72.0,55.0,55,30.19,10.0,NE,11.5,-,N/A,,Scattered Clouds,50,2013-03-03 10:53:00
1:53 AM,72.0,53.1,51,30.17,10.0,NE,9.2,19.6,N/A,,Mostly Cloudy,50,2013-03-03 11:53:00
2:53 AM,71.1,53.1,53,30.14,10.0,ENE,18.4,25.3,N/A,,Partly Cloudy,60,2013-03-03 12:53:00
3:53 AM,70.0,51.1,51,30.13,10.0,NE,9.2,-,N/A,,Partly Cloudy,40,2013-03-03 13:53:00
4:53 AM,70.0,53.1,55,30.12,10.0,ENE,11.5,-,N/A,,Scattered Clouds,60,2013-03-03 14:53:00
5:53 AM,71.1,53.1,53,30.13,10.0,ENE,18.4,25.3,N/A,,Scattered Clouds,60,2013-03-03 15:53:00
6:53 AM,71.1,52.0,51,30.14,10.0,ENE,18.4,25.3,N/A,,Mostly Cloudy,60,2013-03-03 16:53:00
7:53 AM,72.0,55.0,55,30.16,10.0,ENE,18.4,-,N/A,,Mostly Cloudy,60,2013-03-03 17:53:00
8:53 AM,73.0,55.0,53,30.17,10.0,ENE,21.9,28.8,N/A,,Mostly Cloudy,60,2013-03-03 18:53:00
9:53 AM,77.0,51.1,40,30.18,10.0,NE,13.8,29.9,N/A,,Scattered Clouds,50,2013-03-03 19:53:00
10:53 AM,78.1,55.0,45,30.18,10.0,ENE,18.4,26.5,N/A,,Scattered Clouds,60,2013-03-03 20:53:00
11:53 AM,78.1,54.0,43,30.17,10.0,ENE,17.3,25.3,N/A,,Mostly Cloudy,60,2013-03-03 21:53:00
12:53 PM,79.0,55.0,44,30.15,10.0,ENE,18.4,28.8,N/A,,Mostly Cloudy,60,2013-03-03 22:53:00
1:53 PM,78.1,51.1,39,30.13,10.0,ENE,20.7,28.8,N/A,,Mostly Cloudy,70,2013-03-03 23:53:00
2:53 PM,78.1,51.1,39,30.12,10.0,NE,18.4,27.6,N/A,,Scattered Clouds,40,2013-03-04 00:53:00
3:53 PM,78.1,51.1,39,30.12,10.0,NE,17.3,27.6,N/A,,Partly Cloudy,50,2013-03-04 01:53:00
4:53 PM,77.0,54.0,45,30.12,10.0,ENE,18.4,28.8,N/A,,Partly Cloudy,70,2013-03-04 02:53:00
5:53 PM,73.9,57.9,57,30.12,10.0,NE,17.3,-,N/A,,Partly Cloudy,40,2013-03-04 03:53:00
6:53 PM,73.0,57.0,57,30.14,10.0,NE,13.8,19.6,N/A,,Partly Cloudy,40,2013-03-04 04:53:00
7:53 PM,73.0,57.9,59,30.16,10.0,NE,11.5,-,N/A,,Scattered Clouds,50,2013-03-04 05:53:00
8:53 PM,72.0,57.9,61,30.16,10.0,NE,11.5,-,N/A,,Partly Cloudy,40,2013-03-04 06:53:00
9:53 PM,72.0,57.0,59,30.18,10.0,ENE,16.1,21.9,N/A,,Partly Cloudy,60,2013-03-04 07:53:00
10:53 PM,72.0,55.9,57,30.18,10.0,NE,10.4,23.0,N/A,,Scattered Clouds,40,2013-03-04 08:53:00
11:53 PM,72.0,54.0,53,30.17,10.0,NE,18.4,-,N/A,,Mostly Cloudy,50,2013-03-04 09:53:00